TimeCDT,TemperatureF,Dew PointF,Humidity,Sea Level PressureIn,VisibilityMPH,Wind Direction,Wind SpeedMPH,Gust SpeedMPH,PrecipitationIn,Events,Conditions,WindDirDegrees,DateUTC
12:53 AM,46.9,35.1,63,29.91,10.0,West,8.1,-,N/A,,Clear,270,2013-10-06 05:53:00
1:53 AM,46.0,33.1,61,29.91,10.0,West,10.4,21.9,N/A,,Clear,270,2013-10-06 06:53:00
2:53 AM,45.0,33.1,63,29.89,10.0,West,10.4,19.6,N/A,,Clear,270,2013-10-06 07:53:00
3:53 AM,43.0,33.1,68,29.86,10.0,WSW,6.9,-,N/A,,Clear,240,2013-10-06 08:53:00
4:53 AM,42.1,34.0,73,29.86,10.0,West,9.2,-,N/A,,Clear,260,2013-10-06 09:53:00
5:53 AM,42.1,35.1,76,29.87,10.0,West,5.8,-,N/A,,Clear,260,2013-10-06 10:53:00
6:53 AM,45.0,36.0,71,29.88,10.0,West,6.9,-,N/A,,Mostly Cloudy,280,2013-10-06 11:53:00
7:53 AM,46.0,36.0,68,29.89,10.0,West,8.1,21.9,N/A,,Overcast,280,2013-10-06 12:53:00
8:32 AM,46.4,35.6,66,29.90,10.0,WNW,13.8,23.0,N/A,,Mostly Cloudy,290,2013-10-06 13:32:00
8:53 AM,46.9,37.0,68,29.90,10.0,WNW,10.4,23.0,N/A,,Mostly Cloudy,290,2013-10-06 13:53:00
9:53 AM,48.9,37.0,64,29.91,10.0,NW,17.3,24.2,N/A,,Mostly Cloudy,310,2013-10-06 14:53:00
10:53 AM,51.1,39.0,63,29.93,10.0,NW,13.8,-,N/A,,Overcast,310,2013-10-06 15:53:00
11:53 AM,52.0,37.9,59,29.94,10.0,West,11.5,19.6,N/A,,Overcast,280,2013-10-06 16:53:00
12:53 PM,55.0,39.0,55,29.94,10.0,West,12.7,17.3,N/A,,Mostly Cloudy,280,2013-10-06 17:53:00
1:53 PM,55.9,39.0,53,29.92,10.0,WNW,9.2,-,N/A,,Mostly Cloudy,300,2013-10-06 18:53:00
2:53 PM,59.0,41.0,51,29.90,10.0,West,9.2,19.6,N/A,,Mostly Cloudy,280,2013-10-06 19:53:00
3:53 PM,59.0,39.9,49,29.88,10.0,West,12.7,23.0,N/A,,Scattered Clouds,270,2013-10-06 20:53:00
4:53 PM,59.0,41.0,51,29.90,10.0,West,13.8,21.9,N/A,,Overcast,280,2013-10-06 21:53:00
5:53 PM,57.9,42.1,56,29.91,10.0,WNW,8.1,18.4,N/A,,Overcast,290,2013-10-06 22:53:00
6:53 PM,57.0,43.0,59,29.93,10.0,NNW,11.5,-,N/A,,Overcast,330,2013-10-06 23:53:00
7:53 PM,55.9,42.1,60,29.96,10.0,NNW,15.0,26.5,N/A,,Overcast,340,2013-10-07 00:53:00
8:53 PM,55.0,42.1,62,29.97,10.0,North,16.1,25.3,N/A,,Overcast,350,2013-10-07 01:53:00
9:53 PM,54.0,43.0,66,29.99,10.0,NNW,6.9,-,N/A,,Overcast,330,2013-10-07 02:53:00
10:53 PM,51.1,43.0,74,30.01,10.0,NW,3.5,-,N/A,,Clear,320,2013-10-07 03:53:00
11:53 PM,48.9,43.0,80,30.01,10.0,WNW,3.5,-,N/A,,Clear,300,2013-10-07 04:53:00